QPF
0.00 0.00 0.00 0.00 0.00 0.01 0.02 0.02 0.02 0.02 0.03 0.03 0.03 0.04 0.04 0.04 0.04 0.05 0.06 0.06 0.06 0.07 0.07 0.07 0.08 0.10 0.11 0.13 0.14 0.14 0.13 0.11 0.08 0.06 0.07 0.07 0.07 0.06 0.07 0.08 0.09 0.11 0.11
0.00 0.00 0.01 0.01 0.01 0.01 0.01 0.02 0.02 0.02 0.02 0.02 0.02 0.02 0.02 0.04 0.05 0.06 0.07 0.08 0.08 0.08 0.08 0.08 0.10 0.13 0.12 0.13 0.14 0.13 0.13 0.12 0.10 0.08 0.07 0.06 0.07 0.09 0.09 0.09 0.09 0.10 0.11
0.00 0.00 0.00 0.00 0.01 0.02 0.02 0.03 0.02 0.02 0.02 0.03 0.04 0.04 0.02 0.03 0.05 0.05 0.07 0.08 0.09 0.09 0.11 0.10 0.09 0.11 0.12 0.12 0.12 0.13 0.13 0.12 0.10 0.08 0.06 0.06 0.05 0.06 0.07 0.07 0.09 0.11 0.12
0.00 0.00 0.00 0.00 0.01 0.01 0.02 0.02 0.03 0.02 0.02 0.03 0.04 0.03 0.02 0.03 0.03 0.03 0.03 0.06 0.06 0.07 0.09 0.11 0.12 0.10 0.11 0.11 0.10 0.12 0.14 0.14 0.12 0.10 0.08 0.07 0.06 0.06 0.05 0.07 0.09 0.10 0.11
0.00 0.00 0.00 0.00 0.00 0.01 0.01 0.01 0.03 0.03 0.02 0.03 0.05 0.04 0.02 0.02 0.02 0.02 0.02 0.04 0.05 0.05 0.06 0.06 0.08 0.09 0.10 0.10 0.09 0.10 0.12 0.12 0.11 0.09 0.09 0.08 0.08 0.07 0.07 0.07 0.09 0.12 0.14
0.00 0.00 0.00 0.00 0.00 0.00 0.00 0.01 0.02 0.04 0.04 0.03 0.03 0.03 0.03 0.03 0.04 0.04 0.04 0.04 0.06 0.06 0.05 0.04 0.05 0.06 0.06 0.06 0.08 0.09 0.11 0.11 0.09 0.08 0.08 0.08 0.08 0.08 0.09 0.10 0.11 0.11 0.14
0.00 0.00 0.00 0.00 0.00 0.00 0.00 0.01 0.01 0.02 0.02 0.02 0.02 0.02 0.02 0.03 0.06 0.08 0.07 0.05 0.06 0.07 0.06 0.04 0.04 0.04 0.04 0.04 0.06 0.08 0.09 0.10 0.10 0.10 0.10 0.09 0.10 0.11 0.11 0.12 0.12 0.11 0.11
0.00 0.00 0.00 0.00 0.00 0.00 0.00 0.01 0.01 0.01 0.01 0.01 0.01 0.02 0.04 0.06 0.08 0.08 0.08 0.07 0.07 0.06 0.06 0.05 0.04 0.04 0.05 0.05 0.05 0.06 0.08 0.08 0.09 0.08 0.10 0.12 0.14 0.14 0.14 0.15 0.14 0.13 0.13
0.00 0.00 0.00 0.00 0.00 0.00 0.00 0.00 0.00 0.00 0.01 0.01 0.01 0.01 0.02 0.04 0.04 0.04 0.03 0.03 0.03 0.03 0.03 0.04 0.04 0.04 0.07 0.07 0.06 0.08 0.09 0.07 0.07 0.07 0.08 0.10 0.13 0.14 0.13 0.14 0.15 0.14 0.14
0.00 0.00 0.00 0.00 0.00 0.00 0.00 0.00 0.00 0.00 0.00 0.00 0.00 0.00 0.01 0.01 0.02 0.01 0.01 0.02 0.03 0.03 0.02 0.03 0.04 0.04 0.06 0.06 0.05 0.08 0.09 0.06 0.05 0.05 0.06 0.07 0.08 0.09 0.10 0.10 0.11 0.10 0.09
0.00 0.00 0.00 0.00 0.00 0.00 0.00 0.00 0.00 0.00 0.00 0.00 0.00 0.00 0.00 0.01 0.01 0.01 0.01 0.01 0.04 0.03 0.03 0.04 0.03 0.03 0.04 0.04 0.05 0.06 0.08 0.06 0.04 0.04 0.05 0.04 0.05 0.06 0.06 0.07 0.07 0.07 0.06
0.00 0.00 0.00 0.00 0.00 0.00 0.00 0.00 0.00 0.00 0.00 0.00 0.00 0.00 0.00 0.00 0.01 0.01 0.01 0.01 0.03 0.03 0.03 0.03 0.02 0.03 0.02 0.02 0.04 0.05 0.07 0.07 0.05 0.04 0.04 0.03 0.03 0.05 0.04 0.04 0.05 0.05 0.04
0.00 0.00 0.00 0.00 0.00 0.00 0.00 0.00 0.00 0.00 0.00 0.00 0.00 0.00 0.01 0.01 0.01 0.01 0.01 0.01 0.01 0.02 0.04 0.05 0.03 0.02 0.02 0.02 0.03 0.04 0.05 0.06 0.05 0.04 0.03 0.02 0.02 0.03 0.04 0.05 0.05 0.05 0.04
0.00 0.00 0.00 0.00 0.00 0.00 0.00 0.00 0.00 0.00 0.00 0.00 0.00 0.00 0.00 0.00 0.01 0.01 0.00 0.00 0.01 0.01 0.02 0.03 0.02 0.02 0.01 0.01 0.02 0.02 0.03 0.03 0.03 0.03 0.03 0.02 0.01 0.01 0.02 0.03 0.04 0.03 0.03
0.00 0.00 0.00 0.00 0.00 0.00 0.00 0.00 0.00 0.00 0.00 0.00 0.00 0.00 0.00 0.00 0.01 0.01 0.01 0.00 0.00 0.01 0.01 0.01 0.01 0.01 0.01 0.02 0.02 0.03 0.03 0.03 0.02 0.02 0.01 0.01 0.01 0.02 0.01 0.02 0.03 0.03 0.03
0.00 0.00 0.00 0.00 0.00 0.00 0.00 0.00 0.00 0.00 0.00 0.00 0.00 0.00 0.00 0.00 0.00 0.01 0.00 0.00 0.00 0.00 0.01 0.01 0.00 0.00 0.01 0.02 0.02 0.02 0.02 0.01 0.01 0.02 0.01 0.01 0.02 0.02 0.02 0.02 0.03 0.03 0.03
0.00 0.00 0.00 0.00 0.00 0.00 0.00 0.00 0.00 0.00 0.00 0.00 0.00 0.00 0.00 0.00 0.00 0.00 0.00 0.00 0.00 0.00 0.00 0.01 0.01 0.01 0.01 0.01 0.01 0.01 0.01 0.01 0.01 0.01 0.00 0.01 0.01 0.01 0.01 0.02 0.03 0.04 0.03
0.00 0.00 0.00 0.00 0.00 0.00 0.00 0.00 0.00 0.00 0.00 0.00 0.00 0.00 0.00 0.00 0.00 0.00 0.00 0.00 0.00 0.00 0.00 0.01 0.01 0.00 0.00 0.01 0.01 0.01 0.00 0.00 0.00 0.00 0.00 0.00 0.01 0.01 0.01 0.01 0.01 0.02 0.02
0.00 0.00 0.00 0.00 0.00 0.00 0.00 0.00 0.00 0.00 0.00 0.00 0.00 0.00 0.00 0.00 0.00 0.00 0.00 0.00 0.00 0.00 0.00 0.00 0.00 0.00 0.00 0.00 0.00 0.00 0.00 0.00 0.00 0.00 0.00 0.00 0.00 0.01 0.01 0.01 0.00 0.01 0.01
0.00 0.00 0.00 0.00 0.00 0.00 0.00 0.00 0.00 0.00 0.00 0.00 0.00 0.00 0.00 0.00 0.00 0.00 0.00 0.00 0.00 0.00 0.00 0.00 0.00 0.00 0.00 0.00 0.00 0.00 0.00 0.00 0.00 0.00 0.00 0.00 0.00 0.00 0.01 0.01 0.01 0.01 0.01
0.00 0.00 0.00 0.00 0.00 0.00 0.00 0.00 0.00 0.00 0.00 0.00 0.00 0.00 0.00 0.00 0.00 0.00 0.00 0.00 0.00 0.00 0.00 0.00 0.00 0.00 0.00 0.00 0.00 0.00 0.00 0.00 0.00 0.00 0.00 0.00 0.00 0.00 0.00 0.00 0.01 0.01 0.01
0.00 0.00 0.00 0.00 0.00 0.00 0.00 0.00 0.00 0.00 0.00 0.00 0.00 0.00 0.00 0.00 0.00 0.00 0.00 0.00 0.00 0.00 0.00 0.00 0.00 0.00 0.00 0.00 0.00 0.00 0.00 0.00 0.00 0.00 0.00 0.00 0.00 0.00 0.00 0.00 0.00 0.00 0.01
0.00 0.00 0.00 0.00 0.00 0.00 0.00 0.00 0.00 0.00 0.00 0.00 0.00 0.00 0.00 0.00 0.00 0.00 0.00 0.00 0.00 0.00 0.00 0.00 0.00 0.00 0.00 0.00 0.00 0.00 0.00 0.00 0.00 0.00 0.00 0.00 0.00 0.00 0.00 0.00 0.00 0.00 0.00
0.00 0.00 0.00 0.00 0.00 0.00 0.00 0.00 0.00 0.00 0.00 0.00 0.00 0.00 0.00 0.00 0.00 0.00 0.00 0.00 0.00 0.00 0.00 0.00 0.00 0.00 0.00 0.00 0.00 0.00 0.00 0.00 0.00 0.00 0.00 0.00 0.00 0.00 0.00 0.00 0.00 0.00 0.00
0.00 0.00 0.00 0.00 0.00 0.00 0.00 0.00 0.00 0.00 0.00 0.00 0.00 0.00 0.00 0.00 0.00 0.00 0.00 0.00 0.00 0.00 0.00 0.00 0.00 0.00 0.00 0.00 0.00 0.00 0.00 0.00 0.00 0.00 0.00 0.00 0.00 0.00 0.00 0.00 0.00 0.00 0.00
0.00 0.00 0.00 0.00 0.00 0.00 0.00 0.00 0.00 0.00 0.00 0.00 0.00 0.00 0.00 0.00 0.00 0.00 0.00 0.00 0.00 0.00 0.00 0.00 0.00 0.00 0.00 0.00 0.00 0.00 0.00 0.00 0.00 0.00 0.00 0.00 0.00 0.00 0.00 0.00 0.00 0.00 0.00
MSLP
1016.78 1016.56 1016.32 1016.01 1015.63 1015.17 1014.63 1014.03 1013.40 1012.75 1012.10 1011.46 1010.82 1010.20 1009.60 1009.03 1008.50 1008.06 1007.71 1007.51 1007.47 1007.59 1007.87 1008.30 1008.82 1009.41 1010.04 1010.66 1011.26 1011.82 1012.34 1012.81 1013.26 1013.67 1014.04 1014.38 1014.67 1014.91 1015.11 1015.26 1015.40 1015.53 1015.68
1016.97 1016.75 1016.51 1016.21 1015.85 1015.42 1014.92 1014.37 1013.78 1013.16 1012.53 1011.88 1011.21 1010.54 1009.87 1009.22 1008.61 1008.08 1007.65 1007.37 1007.24 1007.29 1007.49 1007.84 1008.29 1008.83 1009.40 1009.99 1010.58 1011.15 1011.71 1012.25 1012.76 1013.26 1013.73 1014.16 1014.53 1014.85 1015.11 1015.31 1015.48 1015.63 1015.79
1017.21 1017.00 1016.76 1016.47 1016.12 1015.71 1015.24 1014.73 1014.19 1013.62 1013.01 1012.38 1011.72 1011.03 1010.33 1009.64 1008.97 1008.38 1007.89 1007.53 1007.33 1007.29 1007.41 1007.67 1008.04 1008.49 1008.99 1009.52 1010.07 1010.62 1011.18 1011.74 1012.30 1012.85 1013.39 1013.89 1014.35 1014.75 1015.08 1015.35 1015.58 1015.78 1015.97
1017.47 1017.28 1017.04 1016.75 1016.40 1016.01 1015.57 1015.10 1014.60 1014.07 1013.52 1012.93 1012.31 1011.64 1010.95 1010.25 1009.57 1008.94 1008.41 1008.00 1007.73 1007.62 1007.65 1007.82 1008.09 1008.44 1008.84 1009.29 1009.76 1010.26 1010.78 1011.32 1011.88 1012.46 1013.03 1013.59 1014.10 1014.57 1014.98 1015.34 1015.64 1015.92 1016.19
1017.71 1017.54 1017.31 1017.02 1016.67 1016.28 1015.86 1015.43 1014.98 1014.51 1014.03 1013.51 1012.94 1012.33 1011.68 1011.01 1010.34 1009.72 1009.17 1008.72 1008.40 1008.22 1008.17 1008.24 1008.40 1008.64 1008.94 1009.27 1009.65 1010.06 1010.51 1011.00 1011.53 1012.09 1012.67 1013.24 1013.80 1014.33 1014.81 1015.25 1015.66 1016.03 1016.39
1017.90 1017.75 1017.53 1017.24 1016.89 1016.51 1016.12 1015.72 1015.33 1014.94 1014.53 1014.09 1013.61 1013.07 1012.49 1011.87 1011.25 1010.64 1010.09 1009.62 1009.26 1009.02 1008.89 1008.86 1008.91 1009.04 1009.22 1009.44 1009.71 1010.02 1010.38 1010.79 1011.26 1011.78 1012.33 1012.91 1013.49 1014.05 1014.60 1015.12 1015.61 1016.09 1016.55
1018.02 1017.89 1017.68 1017.39 1017.06 1016.70 1016.34 1015.99 1015.66 1015.34 1015.02 1014.68 1014.29 1013.84 1013.34 1012.79 1012.21 1011.63 1011.09 1010.60 1010.21 1009.90 1009.70 1009.58 1009.53 1009.55 1009.62 1009.73 1009.89 1010.10 1010.37 1010.71 1011.11 1011.57 1012.09 1012.64 1013.22 1013.80 1014.39 1014.97 1015.54 1016.11 1016.67
1018.06 1017.95 1017.76 1017.49 1017.17 1016.84 1016.53 1016.24 1015.98 1015.75 1015.51 1015.26 1014.97 1014.61 1014.18 1013.69 1013.16 1012.61 1012.07 1011.57 1011.14 1010.78 1010.50 1010.30 1010.17 1010.10 1010.07 1010.10 1010.17 1010.30 1010.50 1010.76 1011.10 1011.51 1011.98 1012.51 1013.07 1013.65 1014.25 1014.86 1015.48 1016.11 1016.74
1018.03 1017.95 1017.77 1017.53 1017.25 1016.96 1016.70 1016.48 1016.30 1016.15 1016.00 1015.83 1015.62 1015.33 1014.97 1014.53 1014.03 1013.49 1012.95 1012.44 1011.97 1011.57 1011.24 1010.98 1010.78 1010.63 1010.55 1010.51 1010.53 1010.61 1010.75 1010.98 1011.27 1011.64 1012.07 1012.56 1013.09 1013.66 1014.25 1014.85 1015.48 1016.12 1016.78
1017.94 1017.87 1017.72 1017.51 1017.28 1017.05 1016.86 1016.71 1016.60 1016.53 1016.45 1016.36 1016.20 1015.97 1015.65 1015.24 1014.77 1014.24 1013.71 1013.18 1012.68 1012.25 1011.88 1011.57 1011.33 1011.15 1011.03 1010.96 1010.95 1011.02 1011.15 1011.35 1011.62 1011.97 1012.37 1012.83 1013.33 1013.85 1014.40 1014.98 1015.57 1016.19 1016.84
1017.79 1017.74 1017.62 1017.46 1017.28 1017.11 1016.99 1016.91 1016.87 1016.85 1016.83 1016.79 1016.67 1016.48 1016.19 1015.80 1015.34 1014.83 1014.29 1013.76 1013.26 1012.81 1012.42 1012.10 1011.84 1011.65 1011.52 1011.46 1011.46 1011.52 1011.66 1011.86 1012.14 1012.47 1012.86 1013.29 1013.75 1014.23 1014.72 1015.24 1015.77 1016.33 1016.92
1017.57 1017.55 1017.46 1017.35 1017.22 1017.12 1017.06 1017.03 1017.05 1017.08 1017.10 1017.08 1016.99 1016.81 1016.53 1016.17 1015.72 1015.23 1014.71 1014.20 1013.71 1013.28 1012.90 1012.59 1012.35 1012.17 1012.05 1012.00 1012.02 1012.11 1012.26 1012.48 1012.77 1013.10 1013.48 1013.89 1014.31 1014.73 1015.17 1015.61 1016.06 1016.53 1017.04
1017.28 1017.28 1017.23 1017.16 1017.10 1017.05 1017.04 1017.06 1017.11 1017.16 1017.20 1017.19 1017.10 1016.93 1016.67 1016.33 1015.91 1015.46 1014.98 1014.51 1014.07 1013.68 1013.35 1013.07 1012.86 1012.71 1012.62 1012.59 1012.63 1012.74 1012.91 1013.15 1013.44 1013.78 1014.15 1014.53 1014.92 1015.30 1015.67 1016.04 1016.41 1016.79 1017.21
1016.90 1016.92 1016.92 1016.90 1016.88 1016.89 1016.91 1016.97 1017.03 1017.09 1017.11 1017.10 1017.01 1016.84 1016.60 1016.28 1015.92 1015.52 1015.12 1014.73 1014.36 1014.04 1013.77 1013.55 1013.38 1013.27 1013.20 1013.20 1013.25 1013.37 1013.55 1013.79 1014.08 1014.42 1014.77 1015.14 1015.50 1015.84 1016.16 1016.47 1016.77 1017.07 1017.40
1016.40 1016.47 1016.51 1016.54 1016.57 1016.61 1016.67 1016.73 1016.79 1016.84 1016.85 1016.82 1016.72 1016.56 1016.34 1016.07 1015.77 1015.46 1015.15 1014.85 1014.59 1014.36 1014.17 1014.02 1013.90 1013.82 1013.78 1013.78 1013.84 1013.95 1014.11 1014.34 1014.62 1014.94 1015.28 1015.63 1015.97 1016.29 1016.58 1016.84 1017.10 1017.35 1017.62
1015.79 1015.90 1015.99 1016.08 1016.15 1016.23 1016.30 1016.37 1016.43 1016.45 1016.44 1016.39 1016.28 1016.13 1015.94 1015.73 1015.51 1015.29 1015.09 1014.91 1014.76 1014.64 1014.53 1014.45 1014.38 1014.33 1014.30 1014.30 1014.33 1014.42 1014.55 1014.75 1015.00 1015.30 1015.62 1015.95 1016.28 1016.59 1016.87 1017.13 1017.36 1017.59 1017.83
1015.06 1015.23 1015.37 1015.51 1015.63 1015.74 1015.84 1015.91 1015.96 1015.97 1015.94 1015.87 1015.76 1015.63 1015.48 1015.32 1015.18 1015.06 1014.97 1014.91 1014.87 1014.84 1014.82 1014.80 1014.78 1014.75 1014.72 1014.70 1014.71 1014.75 1014.85 1015.01 1015.23 1015.49 1015.80 1016.12 1016.45 1016.76 1017.05 1017.31 1017.55 1017.78 1018.00
1014.22 1014.44 1014.64 1014.83 1015.01 1015.16 1015.29 1015.37 1015.42 1015.43 1015.39 1015.31 1015.21 1015.10 1014.99 1014.89 1014.83 1014.79 1014.80 1014.83 1014.89 1014.95 1015.01 1015.04 1015.05 1015.03 1015.00 1014.96 1014.94 1014.96 1015.02 1015.14 1015.32 1015.56 1015.85 1016.16 1016.49 1016.81 1017.12 1017.40 1017.65 1017.89 1018.13
1013.28 1013.55 1013.80 1014.06 1014.29 1014.49 1014.65 1014.77 1014.83 1014.85 1014.82 1014.75 1014.66 1014.58 1014.50 1014.46 1014.45 1014.49 1014.58 1014.69 1014.82 1014.94 1015.05 1015.13 1015.16 1015.16 1015.13 1015.08 1015.05 1015.03 1015.07 1015.16 1015.32 1015.54 1015.81 1016.12 1016.45 1016.78 1017.10 1017.40 1017.68 1017.94 1018.18
1012.27 1012.56 1012.87 1013.17 1013.46 1013.72 1013.93 1014.09 1014.19 1014.23 1014.22 1014.18 1014.12 1014.06 1014.02 1014.02 1014.06 1014.15 1014.28 1014.44 1014.61 1014.78 1014.93 1015.03 1015.10 1015.11 1015.09 1015.06 1015.02 1015.00 1015.03 1015.12 1015.27 1015.48 1015.74 1016.05 1016.38 1016.71 1017.04 1017.35 1017.63 1017.90 1018.15
1011.22 1011.53 1011.86 1012.20 1012.54 1012.85 1013.11 1013.32 1013.47 1013.55 1013.59 1013.58 1013.55 1013.52 1013.51 1013.54 1013.60 1013.72 1013.87 1014.06 1014.26 1014.45 1014.61 1014.74 1014.83 1014.87 1014.88 1014.87 1014.86 1014.87 1014.92 1015.02 1015.18 1015.40 1015.66 1015.96 1016.29 1016.61 1016.93 1017.23 1017.51 1017.77 1018.02
1010.20 1010.48 1010.81 1011.17 1011.54 1011.89 1012.19 1012.45 1012.65 1012.78 1012.86 1012.89 1012.90 1012.90 1012.91 1012.96 1013.04 1013.16 1013.32 1013.51 1013.71 1013.91 1014.09 1014.24 1014.36 1014.44 1014.49 1014.53 1014.57 1014.63 1014.72 1014.86 1015.05 1015.28 1015.55 1015.85 1016.17 1016.48 1016.79 1017.07 1017.33 1017.57 1017.80
1009.27 1009.50 1009.80 1010.14 1010.51 1010.87 1011.20 1011.49 1011.72 1011.90 1012.01 1012.08 1012.12 1012.15 1012.18 1012.23 1012.31 1012.43 1012.58 1012.76 1012.96 1013.15 1013.35 1013.52 1013.67 1013.80 1013.91 1014.01 1014.12 1014.25 1014.41 1014.60 1014.83 1015.09 1015.38 1015.68 1015.99 1016.29 1016.57 1016.83 1017.06 1017.28 1017.48
1008.54 1008.68 1008.91 1009.20 1009.53 1009.87 1010.19 1010.48 1010.72 1010.91 1011.05 1011.14 1011.20 1011.24 1011.28 1011.33 1011.41 1011.51 1011.65 1011.82 1012.00 1012.20 1012.40 1012.59 1012.78 1012.96 1013.13 1013.31 1013.50 1013.70 1013.93 1014.19 1014.47 1014.77 1015.08 1015.40 1015.71 1015.99 1016.26 1016.50 1016.71 1016.91 1017.09
1008.07 1008.11 1008.23 1008.44 1008.69 1008.97 1009.24 1009.50 1009.71 1009.89 1010.02 1010.11 1010.17 1010.21 1010.25 1010.30 1010.36 1010.45 1010.57 1010.72 1010.89 1011.08 1011.28 1011.50 1011.72 1011.94 1012.18 1012.42 1012.68 1012.96 1013.27 1013.59 1013.92 1014.27 1014.62 1014.95 1015.27 1015.56 1015.83 1016.06 1016.27 1016.46 1016.63
1007.95 1007.86 1007.86 1007.95 1008.09 1008.26 1008.45 1008.63 1008.79 1008.91 1009.01 1009.07 1009.11 1009.14 1009.16 1009.19 1009.24 1009.31 1009.41 1009.54 1009.69 1009.87 1010.08 1010.30 1010.54 1010.80 1011.08 1011.38 1011.70 1012.05 1012.41 1012.79 1013.18 1013.57 1013.95 1014.32 1014.66 1014.98 1015.26 1015.50 1015.72 1015.92 1016.11
Thickness
5638 5636 5634 5633 5632 5632 5631 5631 5632 5633 5635 5637 5639 5641 5644 5646 5649 5651 5653 5656 5659 5661 5664 5666 5668 5671 5673 5676 5677 5679 5680 5681 5681 5682 5686 5689 5691 5692 5693 5694 5695 5695 5695
5640 5637 5635 5633 5632 5631 5630 5630 5631 5632 5633 5634 5636 5638 5640 5642 5645 5647 5649 5651 5653 5655 5657 5660 5662 5665 5667 5670 5671 5673 5674 5677 5677 5676 5677 5680 5682 5684 5685 5686 5686 5687 5686
5641 5638 5636 5634 5632 5631 5630 5630 5630 5631 5631 5632 5633 5635 5636 5638 5641 5643 5644 5646 5648 5650 5652 5655 5657 5660 5662 5664 5666 5668 5669 5671 5672 5671 5671 5673 5674 5676 5677 5677 5677 5678 5678
5644 5640 5637 5635 5633 5631 5630 5629 5629 5629 5629 5630 5631 5632 5633 5636 5637 5639 5641 5642 5644 5646 5648 5651 5653 5656 5657 5659 5661 5663 5664 5664 5665 5665 5665 5665 5666 5667 5669 5668 5668 5668 5669
5646 5642 5639 5636 5635 5633 5631 5630 5629 5628 5628 5628 5628 5629 5631 5633 5634 5635 5637 5638 5639 5641 5643 5646 5648 5652 5654 5656 5658 5659 5659 5659 5659 5658 5658 5659 5659 5660 5661 5662 5660 5659 5659
5648 5645 5641 5639 5637 5634 5632 5630 5629 5627 5627 5626 5626 5626 5627 5629 5631 5633 5633 5633 5634 5636 5637 5640 5644 5647 5650 5652 5654 5656 5656 5656 5655 5654 5653 5654 5655 5656 5656 5655 5654 5653 5651
5651 5648 5644 5641 5638 5636 5634 5631 5628 5626 5625 5624 5624 5624 5624 5626 5629 5629 5630 5629 5630 5631 5633 5635 5639 5641 5643 5645 5647 5649 5650 5652 5653 5652 5650 5651 5651 5652 5651 5649 5649 5649 5647
5654 5650 5647 5643 5640 5638 5635 5632 5629 5627 5625 5623 5622 5622 5622 5623 5626 5626 5627 5626 5626 5627 5628 5630 5633 5635 5638 5639 5640 5641 5643 5645 5647 5648 5649 5648 5649 5649 5649 5647 5645 5642 5639
5658 5654 5650 5646 5643 5640 5637 5634 5631 5628 5626 5624 5622 5621 5621 5621 5623 5624 5624 5623 5623 5623 5625 5627 5629 5630 5634 5635 5635 5636 5637 5638 5641 5643 5644 5644 5644 5644 5644 5641 5639 5637 5633
5662 5658 5654 5650 5646 5642 5639 5636 5633 5630 5627 5625 5623 5621 5620 5620 5622 5623 5623 5621 5620 5620 5621 5623 5625 5627 5629 5630 5631 5632 5632 5632 5634 5635 5636 5637 5637 5637 5638 5639 5637 5634 5630
5666 5662 5658 5654 5650 5646 5642 5638 5635 5632 5629 5626 5624 5622 5620 5620 5620 5621 5621 5619 5618 5617 5618 5619 5621 5623 5625 5626 5627 5627 5627 5628 5628 5629 5629 5629 5630 5630 5630 5631 5632 5631 5628
5669 5665 5661 5657 5653 5650 5645 5641 5638 5634 5631 5628 5625 5623 5621 5620 5620 5620 5620 5620 5619 5617 5616 5616 5618 5620 5621 5623 5623 5623 5624 5624 5624 5624 5624 5623 5624 5624 5624 5624 5625 5624 5625
5671 5667 5663 5660 5656 5652 5648 5644 5640 5637 5633 5630 5627 5624 5622 5621 5620 5621 5620 5619 5619 5617 5616 5617 5617 5618 5618 5618 5619 5619 5620 5620 5620 5620 5619 5618 5618 5619 5619 5619 5619 5619 5618
5674 5670 5665 5662 5658 5654 5650 5647 5643 5640 5636 5633 5630 5627 5624 5623 5622 5621 5620 5619 5619 5618 5616 5616 5616 5615 5616 5616 5616 5616 5616 5617 5617 5616 5615 5615 5615 5615 5615 5615 5614 5614 5612
5676 5672 5668 5664 5660 5656 5653 5649 5647 5644 5640 5637 5634 5630 5628 5626 5625 5624 5622 5621 5619 5619 5618 5616 5615 5615 5614 5614 5614 5613 5614 5614 5614 5613 5613 5612 5612 5611 5610 5610 5610 5610 5609
5678 5674 5670 5666 5662 5658 5655 5652 5651 5648 5646 5643 5640 5636 5633 5631 5630 5628 5626 5625 5624 5622 5619 5617 5615 5614 5613 5613 5612 5612 5612 5612 5612 5612 5612 5611 5610 5609 5608 5607 5607 5606 5605
5681 5677 5673 5668 5665 5661 5657 5654 5652 5651 5650 5647 5645 5642 5638 5636 5633 5631 5629 5628 5626 5624 5620 5618 5616 5615 5614 5613 5613 5612 5612 5611 5611 5611 5611 5610 5609 5608 5606 5605 5604 5602 5601
5684 5681 5676 5671 5668 5664 5660 5657 5654 5651 5649 5648 5647 5645 5643 5640 5637 5634 5632 5629 5626 5624 5622 5620 5618 5617 5616 5615 5614 5613 5612 5611 5611 5610 5610 5609 5608 5607 5605 5604 5602 5601 5599
5685 5681 5678 5674 5670 5666 5662 5659 5655 5653 5650 5648 5647 5646 5645 5642 5639 5636 5634 5630 5628 5626 5624 5622 5621 5620 5618 5617 5616 5615 5613 5612 5611 5610 5609 5609 5607 5606 5605 5603 5601 5600 5598
5687 5685 5680 5675 5671 5667 5663 5659 5657 5654 5652 5649 5648 5647 5645 5641 5639 5637 5635 5632 5630 5628 5627 5625 5624 5622 5621 5619 5618 5616 5615 5613 5612 5611 5610 5609 5607 5606 5605 5603 5601 5599 5597
5686 5684 5681 5676 5671 5668 5665 5662 5659 5656 5654 5652 5652 5651 5648 5643 5642 5640 5638 5635 5634 5632 5631 5629 5627 5625 5623 5622 5620 5618 5616 5615 5613 5612 5611 5609 5608 5606 5604 5602 5600 5598 5596
5684 5681 5678 5675 5672 5669 5666 5663 5660 5658 5656 5655 5653 5652 5650 5646 5644 5642 5641 5640 5639 5637 5635 5633 5630 5628 5627 5625 5622 5620 5618 5616 5615 5613 5612 5610 5608 5606 5604 5601 5599 5597 5595
5678 5677 5675 5673 5671 5668 5665 5662 5659 5657 5656 5655 5654 5652 5649 5647 5646 5645 5644 5643 5642 5640 5638 5635 5633 5631 5629 5627 5625 5623 5621 5619 5618 5616 5613 5610 5608 5606 5603 5601 5599 5597 5595
5670 5670 5670 5668 5666 5664 5662 5660 5658 5657 5655 5654 5653 5652 5650 5649 5648 5647 5646 5645 5643 5642 5640 5637 5636 5634 5632 5630 5627 5625 5624 5622 5619 5617 5614 5611 5608 5606 5603 5600 5598 5597 5595
5661 5661 5662 5662 5661 5659 5658 5656 5655 5654 5653 5652 5652 5651 5650 5649 5648 5647 5647 5645 5644 5642 5641 5639 5637 5635 5634 5631 5629 5627 5625 5622 5619 5617 5614 5611 5608 5605 5602 5600 5597 5595 5593
5648 5650 5651 5652 5652 5652 5651 5651 5650 5650 5650 5650 5649 5649 5648 5647 5647 5646 5646 5644 5643 5642 5641 5639 5638 5637 5635 5632 5630 5628 5625 5622 5619 5615 5612 5609 5606 5604 5601 5598 5596 5594 5592